"Time","Temp","Dewpoint","Humidity","Pressure","Direction","Speed","Gust","Precip","PrecipRate"
"00:04:57","58.6","30.3","34","30.40","344","4.1","8.4","0.00","0.00"
"00:09:56","58.5","30.3","34.1","30.40","345","4.3","8.4","0.00","0.00"
"00:14:58","58.4","29.4","33","30.41","328","4.2","8.4","0.00","0.00"
"00:19:56","58.4","29.4","33","30.41","342","5.2","8.4","0.00","0.00"
"00:24:58","58.3","29.3","33","30.41","336","4.2","13.2","0.00","0.00"
"00:29:56","58","29","32.9","30.41","337","3.9","12.7","0.00","0.00"
"00:34:59","57.7","28.5","32.7","30.41","333","3.8","10.8","0.00","0.00"
"00:39:59","57.7","27.6","31.4","30.41","336","4.8","10.8","0.00","0.00"
"00:44:57","57.8","28.2","32.2","30.41","345","1.3","4.6","0.00","0.00"
"00:49:59","57.4","27.7","32","30.41","325","2.1","6","0.00","0.00"
"00:54:57","57.1","27.5","31.9","30.41","343","2.2","6","0.00","0.00"
"00:59:56","56.9","27.4","32.1","30.42","309","3","16.1","0.00","0.00"
"01:04:58","56.9","27","31.6","30.42","333","5","16.1","0.00","0.00"
"01:09:57","56.8","27.2","32","30.42","331","2.6","10.4","0.00","0.00"
"01:14:57","56.5","27.1","32.2","30.42","338","4","12","0.00","0.00"
"01:19:59","56.3","27.1","32.4","30.42","347","3.8","11.5","0.00","0.00"
"01:24:57","56.1","27","32.5","30.42","322","2.6","7.2","0.00","0.00"
"01:29:56","55.9","27.4","33.3","30.43","317","0.3","1.2","0.00","0.00"
"01:34:59","55.5","27.5","34","30.43","317","0.1","2.4","0.00","0.00"
"01:39:59","54.8","27.2","34.3","30.43","319","0.8","3.6","0.00","0.00"
"01:44:58","54.3","26.9","34.6","30.44","322","1.4","4.8","0.00","0.00"
"01:49:56","54.1","26.7","34.7","30.44","343","2","8.4","0.00","0.00"
"01:54:58","54","26.7","34.8","30.44","340","1.9","6","0.00","0.00"
"01:59:56","53.9","26.8","35","30.45","343","0.5","2.4","0.00","0.00"
"02:04:58","53.7","26.9","35.3","30.45","344","0.5","2.4","0.00","0.00"
"02:09:58","53.4","27.2","36.2","30.45","346","2.1","8.4","0.00","0.00"
"02:14:58","53.1","26.8","36","30.45","333","2.5","7.2","0.00","0.00"
"02:19:56","53.1","27","36.2","30.45","329","2","6.9","0.00","0.00"
"02:24:59","53","26.8","36.3","30.45","326","2.3","7.2","0.00","0.00"
"02:29:57","52.9","26.6","36","30.46","334","2.3","8.4","0.00","0.00"
"02:34:59","52.8","26.6","36","30.46","346","3.3","8.4","0.00","0.00"
"02:39:56","52.8","26.6","36","30.46","338","3.4","7.2","0.00","0.00"
"02:44:58","52.7","26.6","36.2","30.46","337","3.6","10.8","0.00","0.00"
"02:49:56","52.7","27","36.8","30.46","340","4.2","12","0.00","0.00"
"02:54:59","52.6","27","37","30.46","349","2.5","7.2","0.00","0.00"
"02:59:58","52.5","27.5","37.9","30.47","339","2.3","7.2","0.00","0.00"
"03:04:57","52.2","27.3","38","30.47","356","3.7","15.6","0.00","0.00"
"03:09:56","52.1","27.8","38.8","30.47","339","4.4","16.1","0.00","0.00"
"03:14:57","52","28.2","39.8","30.47","347","3.6","14.4","0.00","0.00"
"03:19:59","51.8","28.6","40.6","30.47","342","5.4","15","0.00","0.00"
"03:24:58","51.6","28.7","41.2","30.47","327","4.8","15","0.00","0.00"
"03:29:57","51.5","29.1","41.9","30.48","333","3.8","10.8","0.00","0.00"
"03:34:56","51.3","29.3","42.6","30.48","340","4.3","12","0.00","0.00"
"03:39:56","51.1","29.6","43.3","30.48","338","4.6","15","0.00","0.00"
"03:44:59","50.9","29.7","44","30.48","349","5.6","15","0.00","0.00"
"03:49:58","50.8","30","44.6","30.48","341","4.9","15","0.00","0.00"
"03:54:57","50.6","30.1","45.1","30.48","325","4.8","12","0.00","0.00"
"03:59:56","50.4","30.4","45.8","30.49","346","3.9","12","0.00","0.00"
"04:04:58","50.3","30.5","46.5","30.49","335","5","16.1","0.00","0.00"
"04:09:57","50.1","30.6","46.9","30.49","343","2.4","11.5","0.00","0.00"
"04:14:58","49.9","30.9","47.9","30.50","347","4.5","12","0.00","0.00"
"04:19:57","49.7","31.1","48.5","30.50","356","3.9","12","0.00","0.00"
"04:24:59","49.6","31.2","49","30.50","359","2.8","10.4","0.00","0.00"
"04:29:58","49.4","31.1","49.3","30.50","348","3","10.8","0.00","0.00"
"04:34:57","49.2","31.3","50","30.50","335","2.3","7.2","0.00","0.00"
"04:39:58","49","31.4","50.7","30.50","1","2.1","7.2","0.00","0.00"
"04:44:57","48.7","31.4","51","30.51","334","2","4.8","0.00","0.00"
"04:49:57","48.4","31.6","52","30.51","341","2.6","6","0.00","0.00"
"04:54:56","48.1","31.6","52.5","30.51","349","3.6","7.2","0.00","0.00"
"04:59:59","48","31.7","53","30.52","339","3.3","7.2","0.00","0.00"
"05:04:58","47.8","31.7","53.4","30.52","345","3.3","7.2","0.00","0.00"
"05:09:57","47.7","31.8","53.9","30.52","347","4.4","8.4","0.00","0.00"
"05:14:58","47.6","31.8","54.2","30.53","340","4.8","10.8","0.00","0.00"
"05:19:56","47.4","32","55","30.53","344","3.6","10.8","0.00","0.00"
"05:24:56","47.3","32","55.2","30.53","341","4.6","13.2","0.00","0.00"
"05:29:59","47.2","32.1","55.7","30.53","343","3.9","7.2","0.00","0.00"
"05:34:58","47","32.1","56","30.53","340","4.2","10.8","0.00","0.00"
"05:39:59","46.9","32","56","30.53","333","3.9","8.4","0.00","0.00"
"05:44:58","46.7","32.1","56.7","30.53","338","3.7","7.2","0.00","0.00"
"05:49:58","46.4","32","57","30.53","340","2.7","7.2","0.00","0.00"
"05:54:57","46.2","32.2","57.9","30.53","339","3.2","7.2","0.00","0.00"
"05:59:56","46","32.1","58.2","30.54","346","2.8","7.2","0.00","0.00"
"06:04:59","45.8","32.3","58.8","30.54","337","3.5","12","0.00","0.00"
"06:09:59","45.8","32.3","59.2","30.54","335","3.6","15","0.00","0.00"
"06:14:56","45.7","32.2","59","30.55","317","2.3","6.9","0.00","0.00"
"06:19:59","45.6","32.4","59.8","30.55","342","3.8","10.8","0.00","0.00"
"06:24:58","45.6","32.5","60","30.55","341","3.6","14.4","0.00","0.00"
"06:29:56","45.7","32.6","60","30.55","334","3.7","12.7","0.00","0.00"
"06:34:59","45.7","32.8","60.5","30.55","327","2.9","10.8","0.00","0.00"
"06:39:59","45.6","32.9","61","30.55","338","2.6","12","0.00","0.00"
"06:44:58","45.6","33.1","61.6","30.56","350","3.5","8.4","0.00","0.00"
"06:49:57","45.5","33.2","62","30.56","338","2.5","8.4","0.00","0.00"
"06:54:57","45.5","33.4","62.5","30.56","358","3.1","13.2","0.00","0.00"
"06:59:56","45.5","33.4","62.7","30.57","342","2.4","12.7","0.00","0.00"
"07:04:58","45.5","33.5","62.7","30.57","345","3.1","8.4","0.00","0.00"
"07:09:57","45.6","33.3","62","30.57","344","4.2","13.2","0.00","0.00"
"07:14:59","45.8","33.5","62","30.58","3","4.1","13.2","0.00","0.00"
"07:19:57","45.9","33.6","62","30.58","339","3.2","10.8","0.00","0.00"
"07:24:56","46","33.5","61.5","30.58","349","5.1","14.4","0.00","0.00"
"07:29:59","46","33.5","61.6","30.59","0","5.1","17.3","0.00","0.00"
"07:34:58","46","33.6","61.7","30.59","16","3.8","8.4","0.00","0.00"
"07:39:59","46.1","33.6","61.5","30.59","9","3.3","8.4","0.00","0.00"
"07:44:58","46","33.5","61.4","30.60","343","3.8","8.1","0.00","0.00"
"07:49:57","46.1","33.5","61.3","30.60","334","3","8.4","0.00","0.00"
"07:54:56","46.3","33.7","61.2","30.60","340","3.3","10.8","0.00","0.00"
"07:59:56","46.5","34","61.4","30.60","347","2.9","8.4","0.00","0.00"
"08:04:58","46.7","34","61.1","30.60","350","3","10.8","0.00","0.00"
"08:09:57","47.1","34.3","61","30.60","356","3.9","10.8","0.00","0.00"
"08:14:58","47.5","34.6","60.7","30.60","341","5.4","16.8","0.00","0.00"
"08:19:58","47.8","34.4","59.5","30.60","344","5.5","17.3","0.00","0.00"
"08:24:56","47.9","34.4","59.3","30.60","4","5.5","17.3","0.00","0.00"
"08:29:59","48.1","34.6","59.4","30.60","355","5.8","17.3","0.00","0.00"
"08:34:58","48.3","34.7","59.1","30.60","337","5.6","17.3","0.00","0.00"
"08:39:59","48.6","35","59.2","30.60","340","5","15","0.00","0.00"
"08:44:58","48.8","34.9","58.5","30.61","352","6.3","15","0.00","0.00"
"08:49:57","49","34.9","58.2","30.61","333","5.6","15.6","0.00","0.00"
"08:54:56","49.3","35.2","58.1","30.61","339","4.4","16.1","0.00","0.00"
"08:59:59","49.6","35.3","57.8","30.61","348","3.5","12","0.00","0.00"
"09:04:58","49.7","35.3","57.4","30.61","347","3.6","12","0.00","0.00"
"09:09:57","49.7","35.4","57.8","30.61","346","4.6","12","0.00","0.00"
"09:14:58","49.7","35.4","57.6","30.61","351","4.9","20.4","0.00","0.00"
"09:19:58","49.8","35.5","57.8","30.61","346","4.4","10.8","0.00","0.00"
"09:24:57","50.2","36","58","30.61","342","4.4","15","0.00","0.00"
"09:29:56","50.5","35.7","56.7","30.61","344","6.8","17.3","0.00","0.00"
"09:34:59","50.8","36.1","57","30.61","346","4.1","10.8","0.00","0.00"
"09:39:56","51.2","36.4","56.7","30.61","350","4.6","16.1","0.00","0.00"
"09:44:56","51.6","36.4","56.2","30.61","347","4.7","12","0.00","0.00"
"09:49:59","51.9","36.7","56","30.61","344","6.1","19.6","0.00","0.00"
"09:54:58","52.4","37.2","56.1","30.61","53","3.3","10.4","0.00","0.00"
"09:59:57","52.8","37","54.8","30.61","334","3.8","10.8","0.00","0.00"
"10:04:59","52.7","36.9","54.8","30.61","38","3.6","8.4","0.00","0.00"
"10:09:58","52.9","37.6","56.1","30.61","89","2.9","6","0.00","0.00"
"10:14:59","53.1","37.1","54.6","30.61","352","3.5","12","0.00","0.00"
"10:19:59","53.2","37.1","54.3","30.61","336","5.2","19.6","0.00","0.00"
"10:24:58","53.2","36.9","53.9","30.61","81","4","17.3","0.00","0.00"
"10:29:58","53.4","37.6","54.8","30.61","343","4","12","0.00","0.00"
"10:34:57","53.8","37.5","53.9","30.61","36","3","7.2","0.00","0.00"
"10:39:58","54.3","37.8","53.7","30.61","336","3.7","16.1","0.00","0.00"
"10:44:58","54.6","37.6","52.5","30.61","354","4.7","13.2","0.00","0.00"
"10:49:57","54.9","37.8","52.4","30.60","359","3.6","8.4","0.00","0.00"
"10:54:56","55","37.3","51.2","30.60","15","3.2","12","0.00","0.00"
"10:59:59","55.3","38","52","30.60","31","3.2","10.8","0.00","0.00"
"11:04:58","55.7","38","51.3","30.59","64","3","12","0.00","0.00"
"11:09:57","55.9","38.1","51.1","30.59","84","3.6","12","0.00","0.00"
"11:14:58","55.8","37.9","50.9","30.59","9","4.7","13.2","0.00","0.00"
"11:19:58","55.8","37.7","50.5","30.59","3","3.8","11.5","0.00","0.00"
"11:24:57","55.9","37.6","50.1","30.59","159","3.7","12","0.00","0.00"
"11:29:57","56.1","37.8","50.2","30.59","15","3.6","12","0.00","0.00"
"11:34:56","56.1","38.3","51.2","30.58","22","4.1","10.8","0.00","0.00"
"11:39:58","56.1","37.8","50.2","30.58","351","2.7","7.2","0.00","0.00"
"11:44:57","56.1","38.1","50.8","30.58","17","3.2","15.6","0.00","0.00"
"11:49:57","56.3","37.8","49.7","30.58","93","4.6","15.6","0.00","0.00"
"11:54:57","56.3","38.2","50.4","30.58","27","3.9","16.1","0.00","0.00"
"11:59:56","56.7","38.6","50.7","30.58","1","3.1","11.5","0.00","0.00"
"12:04:59","56.9","38.4","50","30.57","348","5.4","17.3","0.00","0.00"
"12:09:58","57.1","38.7","50.1","30.57","328","3.9","12","0.00","0.00"
"12:14:56","57.3","38.6","49.5","30.57","350","5.5","13.2","0.00","0.00"
"12:19:56","57.4","38.5","49.3","30.56","350","5.2","12","0.00","0.00"
"12:24:56","57.6","38.4","48.7","30.56","356","5.2","15","0.00","0.00"
"12:29:56","57.7","38.8","49.2","30.56","340","3.4","10.8","0.00","0.00"
"12:34:56","57.9","39.1","49.4","30.56","33","2.5","7.2","0.00","0.00"
"12:39:58","58.3","39.3","49.3","30.56","343","3.1","8.4","0.00","0.00"
"12:44:58","58.6","39.5","49.1","30.56","345","4.5","13.2","0.00","0.00"
"12:49:58","58.6","38.3","46.7","30.55","335","7.8","15","0.00","0.00"
"12:54:57","58.3","38.7","48.1","30.55","334","4.4","11.5","0.00","0.00"
"12:59:57","58.5","38.5","47.4","30.55","324","5.8","14.4","0.00","0.00"
"13:04:56","58.6","38.8","47.6","30.55","343","4.2","13.2","0.00","0.00"
"13:09:59","58.9","38.9","47.4","30.55","325","2.7","10.8","0.00","0.00"
"13:14:57","59.2","38.9","46.9","30.55","337","5","15","0.00","0.00"
"13:19:57","59.5","38.3","45.4","30.55","332","5.4","15","0.00","0.00"
"13:24:57","59.6","38.5","45.7","30.55","332","3.5","9.2","0.00","0.00"
"13:29:57","59.8","38.5","45.2","30.55","44","2.5","7.2","0.00","0.00"
"13:34:57","59.9","39.3","46.4","30.54","346","2.6","7.2","0.00","0.00"
"13:39:59","60","39.7","47.1","30.54","342","2.8","8.4","0.00","0.00"
"13:44:56","60.3","39.6","46.4","30.54","340","3.2","7.2","0.00","0.00"
"13:49:56","60.5","39.8","46.4","30.54","341","3.5","8.4","0.00","0.00"
"13:54:56","60.8","39.9","46.2","30.54","341","2.7","8.4","0.00","0.00"
"13:59:56","60.8","39.3","45","30.54","345","2.9","8.4","0.00","0.00"
"14:04:59","60.7","39.3","45.2","30.54","36","2.9","8.1","0.00","0.00"
"14:09:59","60.7","39.4","45.4","30.54","340","2.8","8.4","0.00","0.00"
"14:14:57","60.8","39.6","45.5","30.54","337","3.1","10.8","0.00","0.00"
"14:19:57","60.9","39.1","44.5","30.54","321","3","7.2","0.00","0.00"
"14:24:57","61.1","39.8","45.5","30.54","345","3.8","10.8","0.00","0.00"
"14:29:57","61.2","39.1","44","30.54","340","4.5","13.2","0.00","0.00"
"14:34:57","61","38.9","44","30.54","330","4.8","14.4","0.00","0.00"
"14:39:59","60.8","39","44.6","30.54","335","5.7","10.8","0.00","0.00"
"14:44:56","60.8","39.3","45","30.54","335","3.7","9.6","0.00","0.00"
"14:49:56","61.2","39.6","45","30.54","334","1.9","4.8","0.00","0.00"
"14:54:56","61.4","39.1","43.6","30.54","331","4.9","13.2","0.00","0.00"
"14:59:56","61.1","38.7","43.5","30.54","341","3.1","6","0.00","0.00"
"15:04:59","61.3","39.1","43.8","30.54","353","3.3","8.4","0.00","0.00"
"15:09:58","61","38","42.5","30.54","14","2.6","8.1","0.00","0.00"
"15:14:57","60.6","37.9","42.8","30.55","18","2.4","6","0.00","0.00"
"15:19:56","60.5","38.1","43.5","30.55","348","2.8","10.8","0.00","0.00"
"15:24:56","60.4","37.7","42.7","30.55","57","2.6","7.2","0.00","0.00"
"15:29:56","60.3","37.3","42.4","30.55","319","3.2","8.4","0.00","0.00"
"15:34:59","60","37.4","43","30.55","348","3.7","12","0.00","0.00"
"15:39:57","60","37.5","43.2","30.55","359","2.4","10.8","0.00","0.00"
"15:44:57","60","37.3","42.8","30.55","340","3.5","10.8","0.00","0.00"
"15:49:57","59.8","37.2","43","30.55","341","2.3","9.6","0.00","0.00"
"15:54:57","59.7","37.8","44.3","30.55","335","2","6","0.00","0.00"
"15:59:57","59.4","37.3","43.7","30.55","348","2.3","7.2","0.00","0.00"
"16:04:56","59.2","37.1","43.7","30.55","351","1.8","8.4","0.00","0.00"
"16:09:59","59.1","36.7","43.2","30.55","351","1.1","3.6","0.00","0.00"
"16:14:57","59.2","36.7","43","30.55","350","1.7","6","0.00","0.00"
"16:19:57","59.1","36.5","42.8","30.55","346","2.4","6","0.00","0.00"
"16:24:57","58.7","36","42.7","30.55","15","1.5","7.2","0.00","0.00"
"16:29:57","58.2","35.9","43.3","30.55","356","1.2","3.6","0.00","0.00"
"16:34:58","57.8","36.1","44.2","30.55","348","2.3","10.8","0.00","0.00"
"16:39:57","57.3","35.8","44.4","30.55","331","2.3","10.4","0.00","0.00"
"16:44:59","56.9","35.7","44.9","30.55","309","1.5","4.8","0.00","0.00"
"16:49:59","56.5","35.6","45.3","30.55","338","2.6","7.2","0.00","0.00"
"16:54:59","56.2","35.2","45.2","30.55","15","1.4","6.9","0.00","0.00"
"16:59:56","55.9","35.2","45.6","30.55","326","2.1","4.8","0.00","0.00"
"17:04:59","55.5","35","46","30.55","344","1.9","6","0.00","0.00"
"17:09:59","55.2","34.9","46.2","30.55","341","1.8","4.8","0.00","0.00"
"17:14:58","55","34.9","46.7","30.56","333","1","4.8","0.00","0.00"
"17:19:59","54.7","34.9","47.2","30.56","333","2","3.6","0.00","0.00"
"17:24:59","54.3","35","48","30.56","333","0.9","3.6","0.00","0.00"
"17:29:56","53.9","34.9","48.4","30.56","334","0","0","0.00","0.00"
"17:34:57","53.5","35.3","50","30.56","333","0","0","0.00","0.00"
"17:39:56","53","34.9","50","30.56","334","0","0","0.00","0.00"
"17:44:57","52.6","34.9","50.8","30.56","334","0","0","0.00","0.00"
"17:49:58","52.1","35.1","52.2","30.56","334","0","0","0.00","0.00"
"17:54:59","51.7","34.8","52.3","30.56","333","0","0","0.00","0.00"
"17:59:59","51.3","35.2","54","30.57","334","0","0","0.00","0.00"
"18:04:59","50.9","34.8","54","30.57","334","0","0","0.00","0.00"
"18:09:59","50.4","34.8","54.9","30.57","333","0.1","1.2","0.00","0.00"
"18:14:57","50","34.9","56","30.57","333","0.2","2.4","0.00","0.00"
"18:19:58","49.6","35","57.1","30.57","333","0.2","2.3","0.00","0.00"
"18:24:58","49.2","35","58","30.57","333","0.1","1.2","0.00","0.00"
"18:29:58","48.9","34.8","58","30.58","333","0","0","0.00","0.00"
"18:34:58","48.6","34.8","58.8","30.58","334","0","0","0.00","0.00"
"18:39:56","48.2","34.8","59.6","30.58","334","0","0","0.00","0.00"
"18:44:57","48","35.1","60.9","30.58","334","0","0","0.00","0.00"
"18:49:58","47.7","35.1","61.4","30.58","334","0","0","0.00","0.00"
"18:54:58","47.5","35.1","62.1","30.58","334","0","0","0.00","0.00"
"18:59:59","47.3","35","62.4","30.59","334","0","0","0.00","0.00"
"19:04:57","47.1","34.7","62.2","30.59","334","0","0","0.00","0.00"
"19:09:57","46.9","34.7","62.2","30.59","333","0","2.4","0.00","0.00"
"19:14:59","46.9","34.8","62.5","30.59","333","0.6","2.4","0.00","0.00"
"19:19:59","46.8","34.8","62.9","30.59","333","0.3","2.4","0.00","0.00"
"19:24:59","46.7","34.7","62.7","30.59","333","1","3.6","0.00","0.00"
"19:29:59","46.7","34.8","63","30.59","316","2.4","6","0.00","0.00"
"19:34:59","46.7","34.9","63.2","30.59","302","0.2","2.4","0.00","0.00"
"19:39:57","46.5","35","64.2","30.59","302","0.1","2.3","0.00","0.00"
"19:44:58","46.2","34.7","64","30.60","302","0","1.2","0.00","0.00"
"19:49:58","46","34.8","64.8","30.60","302","0","0","0.00","0.00"
"19:54:58","45.8","34.8","65.3","30.60","302","0.4","2.4","0.00","0.00"
"19:59:58","45.6","34.6","65.2","30.60","302","1.1","2.4","0.00","0.00"
"20:04:57","45.6","34.7","65.5","30.59","302","0.4","2.3","0.00","0.00"
"20:09:57","45.5","35","66.5","30.59","302","0","0","0.00","0.00"
"20:14:56","45.2","34.8","66.8","30.59","302","0","2.4","0.00","0.00"
"20:19:56","44.9","34.5","66.7","30.59","302","1.4","2.4","0.00","0.00"
"20:24:56","44.8","34.1","66","30.59","302","0.1","1.2","0.00","0.00"
"20:29:57","44.6","34.4","67.2","30.59","302","1.5","3.6","0.00","0.00"
"20:34:57","44.4","34.5","68.1","30.59","302","1.4","3.6","0.00","0.00"
"20:39:58","44.1","34.8","69.4","30.59","302","0.5","2.4","0.00","0.00"
"20:44:59","43.7","34.7","70.5","30.59","302","0.2","2.4","0.00","0.00"
"20:49:55","43.5","34.2","69.7","30.59","304","1.3","3.6","0.00","0.00"
"20:54:56","43.6","33.8","68.3","30.59","308","0.7","3.5","0.00","0.00"
"20:59:57","43.8","34.3","69","30.59","308","0.4","2.4","0.00","0.00"
"21:04:56","43.7","34.6","69.9","30.59","308","1.9","4.8","0.00","0.00"
"21:09:59","43.5","34.5","70.2","30.59","308","0.3","2.4","0.00","0.00"
"21:14:58","43.1","34.7","71.9","30.59","309","0","0","0.00","0.00"
"21:19:59","42.8","34.1","71.3","30.59","308","0.6","2.4","0.00","0.00"
"21:24:56","42.8","34","71","30.59","308","1","2.4","0.00","0.00"
"21:29:57","42.9","34.1","71","30.59","308","0","0","0.00","0.00"
"21:34:57","42.7","33.9","71","30.59","309","0","1.2","0.00","0.00"
"21:39:56","42.7","34.2","71.7","30.59","308","0.1","1.2","0.00","0.00"
"21:44:57","42.7","33.9","71","30.59","308","0","0","0.00","0.00"
"21:49:57","42.6","33.7","70.4","30.59","309","0","0","0.00","0.00"
"21:54:58","42.5","33.8","71.2","30.59","309","0","0","0.00","0.00"
"21:59:58","42.4","33.9","71.8","30.60","309","0","0","0.00","0.00"
"22:04:57","42.1","34","72.6","30.60","309","0","0","0.00","0.00"
"22:09:57","41.8","33.6","72.5","30.60","309","0","0","0.00","0.00"
"22:14:59","41.6","33.6","73","30.60","309","0","0","0.00","0.00"
"22:19:56","41.4","33.6","73.7","30.60","309","0","0","0.00","0.00"
"22:24:57","41.1","33.4","74","30.60","309","0","0","0.00","0.00"
"22:29:58","40.9","33.6","75","30.60","309","0","0","0.00","0.00"
"22:34:59","40.7","33.4","75","30.60","309","0","0","0.00","0.00"
"22:39:58","40.6","33.3","75.1","30.60","309","0","0","0.00","0.00"
"22:44:56","40.5","33.5","76","30.60","309","0","0","0.00","0.00"
"22:49:57","40.1","33.4","76.8","30.59","309","0","0","0.00","0.00"
"22:54:58","39.8","33.2","77","30.59","309","0","0","0.00","0.00"
"22:59:59","39.7","33.1","77","30.60","309","0","0","0.00","0.00"
"23:04:55","39.6","33","77","30.60","309","0","0","0.00","0.00"
"23:19:56","39.3","32.8","77.5","30.60","309","0","0","0.00","0.00"
"23:24:59","39.2","32.6","77","30.60","308","0","0","0.00","0.00"
"23:29:59","39.2","32.6","77.2","30.60","308","0","0","0.00","0.00"
"23:34:58","39","32.7","78","30.60","309","0","0","0.00","0.00"
"23:39:57","38.8","32.6","78.5","30.60","309","0","0","0.00","0.00"
"23:44:59","38.6","32.6","79","30.60","309","0","0","0.00","0.00"
"23:49:59","38.4","32.5","79.1","30.60","308","0","0","0.00","0.00"
